Retour au catalogue

YAOGAN-30 Z

ActifMilitaireVLEO
NORAD 48425·PAYLOAD·🇨🇳 China

Lancé May 6, 2021 depuis Xichang Satellite Launch Center

Loading…

Prochains Passages (prochaines 24 heures)

TLE

FraisSource: Space-Track

Époque: Sep 14, 2026, 22:24 UTC

1 48425U 21039C   26257.93393999  .00002192  00000-0  16164-3 0  9999
2 48425  34.9945 203.5636 0001259 179.1768 180.8942 15.03031867293066

Suivez YAOGAN-30 Z en temps réel avec AllMySat

Download on the App Store